This is the latest recevied weather packets stored in our database for station/object KD5BIG-13. If no packets are shown the sender has not sent any weather packets the latest 10 day(s).
| Time | Temp. | Humidity | Pressure | Rain* | Wind** | Luminosity | Snow |
|---|---|---|---|---|---|---|---|
| 1777382321 | 22.78° C | 93% | 1020 hPa | 0 mm | - | 132 W/m² | - |
| 1777382018 | 22.78° C | 94% | 1020.2 hPa | 0 mm | - | 124 W/m² | - |
| 1777381718 | 22.78° C | 94% | 1020.3 hPa | 0 mm | - | 101 W/m² | - |
| 1777381413 | 22.78° C | 95% | 1020.3 hPa | 0 mm | - | 87 W/m² | - |
| 1777381110 | 22.22° C | 95% | 1020.3 hPa | 0 mm | - | 98 W/m² | - |
| 1777380807 | 22.22° C | 95% | 1020 hPa | 0 mm | - | 97 W/m² | - |
| 1777380504 | 22.22° C | 96% | 1020.2 hPa | 0 mm | - | 75 W/m² | - |
| 1777380201 | 22.22° C | 96% | 1020.1 hPa | 0 mm | - | 47 W/m² | - |
| 1777379896 | 21.67° C | 96% | 1020.1 hPa | 0 mm | - | 40 W/m² | - |
| 1777379592 | 21.67° C | 96% | 1020 hPa | 0 mm | - | 43 W/m² | - |
| 1777379289 | 21.67° C | 96% | 1020 hPa | 0 mm | - | 37 W/m² | - |
| 1777378988 | 21.67° C | 96% | 1020.1 hPa | 0 mm | - | 41 W/m² | - |
| 1777378684 | 21.67° C | 96% | 1020.2 hPa | 0 mm | - | 42 W/m² | - |
| 1777378381 | 21.67° C | 96% | 1019.8 hPa | 0 mm | - | 41 W/m² | - |
| 1777378075 | 21.11° C | 96% | 1019.8 hPa | 0 mm | - | 31 W/m² | - |
| 1777377770 | 21.11° C | 96% | 1019.7 hPa | 0 mm | - | 24 W/m² | - |
| 1777377464 | 21.11° C | 96% | 1019.5 hPa | 0 mm | - | 26 W/m² | - |
| 1777377160 | 21.11° C | 97% | 1019.5 hPa | 0 mm | - | 23 W/m² | - |
| 1777376858 | 21.11° C | 97% | 1019.7 hPa | 0 mm | - | 20 W/m² | - |
| 1777376555 | 21.11° C | 97% | 1019.8 hPa | 0 mm | - | 14 W/m² | - |
| 1777376251 | 21.11° C | 97% | 1019.8 hPa | 0 mm | - | 10 W/m² | - |
| 1777375946 | 21.11° C | 98% | 1019.4 hPa | 0 mm | - | 6 W/m² | - |
| 1777375641 | 20.56° C | 97% | 1019.3 hPa | 0 mm | - | 4 W/m² | - |
| 1777375336 | 20.56° C | 97% | 1019.3 hPa | 0 mm | - | 2 W/m² | - |
| 1777375033 | 20.56° C | 97% | 1019.8 hPa | 0 mm | - | 1 W/m² | - |
* Rain latest hour (hover to see other rain measurements)
** Current wind speed in m/s (hover to see current wind gust speed)